Weather History for Greenville, MS

Change the Weather History Date:

Sunday, April 21, 2013

  Actual Average Record
Temperature  
Mean Temperature 59 °F 65 °F  
Max Temperature 70 °F 76 °F 95 °F (1987)
Min Temperature 48 °F 54 °F 34 °F (1953)
Degree Days  
Heating Degree Days 6 2  
Month to date heating degree days 136 101  
Since 1 July heating degree days 2614 2746  
Cooling Degree Days 0 2  
Month to date cooling degree days 54 33  
Year to date cooling degree days 66 55  
Growing Degree Days 8 (Base 50)    
Moisture  
Dew Point 43 °F    
Average Humidity 63    
Maximum Humidity 93    
Minimum Humidity 33    
Precipitation  
Precipitation 0.00 in 0.15 in 2.13 in (1995)
Month to date precipitation 3.30 3.52  
Year to date precipitation 20.51 18.06  
Sea Level Pressure  
Sea Level Pressure 30.24 in    
Wind  
Wind Speed 6 mph (ENE)    
Max Wind Speed 15 mph    
Max Gust Speed 21 mph    
Visibility 10 miles    
Events      
T = Trace of Precipitation, MM = Missing Value Source: NWS Daily Summary

Daily Weather History Graph

Daily Weather History Graph

Search for Another Location

Airport:

Trip Planner

Search our weather history database for the weather conditions in past years. The results will help you decide how hot, cold, wet, or windy it might be!

Date:

Astronomy

Apr. 21, 2013 Rise Set
Actual Time 6:26 AM CDT 7:39 PM CDT
Civil Twilight 6:00 AM CDT 8:05 PM CDT
Nautical Twilight 5:29 AM CDT 8:36 PM CDT
Astronomical Twilight 4:57 AM CDT 9:08 PM CDT
Moon 3:36 PM CDT (4/21) 3:35 AM CDT (4/21)
Length of Visible Light 14h 05m
Length of Day
13h 13m
Waxing Gibbous, 80% of the Moon is Illuminated
Apr 21
Waxing Gibbous
Apr 25
Full
May 2
Last Quarter
May 9
New
May 17
First Quarter

Hourly Weather History & Observations

Time (CDT) Temp. Dew Point Humidity Pressure Visibility Wind Dir Wind Speed Gust Speed Precip Events Conditions
12:53 AM 48.9 °F 44.1 °F 83% 30.26 in 10.0 mi Calm Calm - N/A   Clear
1:53 AM 48.9 °F 46.0 °F 90% 30.25 in 10.0 mi East 3.5 mph - N/A   Clear
2:53 AM 50.0 °F 46.9 °F 89% 30.25 in 10.0 mi Calm Calm - N/A   Clear
3:53 AM 48.9 °F 46.0 °F 90% 30.24 in 10.0 mi East 5.8 mph - N/A   Clear
4:53 AM 48.9 °F 44.1 °F 83% 30.25 in 10.0 mi ENE 3.5 mph - N/A   Clear
5:53 AM 50.0 °F 45.0 °F 83% 30.25 in 10.0 mi ENE 4.6 mph - N/A   Clear
6:53 AM 48.9 °F 44.1 °F 83% 30.28 in 10.0 mi NE 3.5 mph - N/A   Clear
7:53 AM 52.0 °F 46.9 °F 83% 30.31 in 10.0 mi ENE 3.5 mph - N/A   Clear
8:53 AM 57.0 °F 44.1 °F 62% 30.31 in 10.0 mi ESE 11.5 mph 17.3 mph N/A   Clear
9:53 AM 61.0 °F 41.0 °F 48% 30.31 in 10.0 mi ESE 13.8 mph - N/A   Clear
10:53 AM 64.0 °F 43.0 °F 46% 30.31 in 10.0 mi East 9.2 mph - N/A   Clear
11:53 AM 66.0 °F 42.1 °F 42% 30.30 in 10.0 mi ENE 10.4 mph 18.4 mph N/A   Clear
12:53 PM 66.9 °F 41.0 °F 39% 30.27 in 10.0 mi Variable 4.6 mph - N/A   Clear
1:53 PM 68.0 °F 41.0 °F 37% 30.25 in 10.0 mi Variable 4.6 mph - N/A   Clear
2:53 PM 68.0 °F 41.0 °F 37% 30.23 in 10.0 mi East 10.4 mph 16.1 mph N/A   Clear
3:53 PM 68.0 °F 42.1 °F 39% 30.20 in 10.0 mi ENE 9.2 mph - N/A   Clear
4:53 PM 69.1 °F 39.9 °F 35% 30.19 in 10.0 mi East 4.6 mph - N/A   Clear
5:53 PM 66.0 °F 42.1 °F 42% 30.18 in 10.0 mi ESE 8.1 mph - N/A   Clear
6:53 PM 64.9 °F 43.0 °F 45% 30.18 in 10.0 mi ENE 4.6 mph - N/A   Clear
7:53 PM 61.0 °F 44.1 °F 54% 30.18 in 10.0 mi NE 5.8 mph - N/A   Clear
8:53 PM 61.0 °F 42.1 °F 50% 30.19 in 10.0 mi ENE 4.6 mph - N/A   Clear
9:53 PM 57.0 °F 42.1 °F 57% 30.19 in 10.0 mi ENE 8.1 mph - N/A   Clear
10:53 PM 57.0 °F 41.0 °F 55% 30.20 in 10.0 mi East 4.6 mph - N/A   Clear
11:53 PM 57.0 °F 41.0 °F 55% 30.21 in 10.0 mi ENE 3.5 mph - N/A   Clear